Lafayette, LA

1:31 PM CST on February 25, 2017 (GMT -0600)
Lafayette Regional

Weather History for KLFT - April, 2012

Change the Weather History Date:

Monday, April 23, 2012

  Actual Average Record
Temperature  
Mean Temperature 63 °F 71 °F  
Max Temperature 72 °F 81 °F 90 °F (1925)
Min Temperature 53 °F 61 °F 41 °F (1927)
Degree Days  
Heating Degree Days 2 1  
Month to date heating degree days 7 38  
Since 1 July heating degree days 1036 1418  
Cooling Degree Days 0 6  
Month to date cooling degree days 139 108  
Year to date cooling degree days 378 203  
Growing Degree Days 12 (Base 50)    
Moisture  
Dew Point 43 °F    
Average Humidity 63    
Maximum Humidity 93    
Minimum Humidity 33    
Precipitation  
Precipitation 0.00 in 0.13 in 2.10 in (1952)
Month to date precipitation 4.79 2.95  
Year to date precipitation 22.33 16.86  
Snow  
Snow 0.00 in 0.00 in 0.00 in ()
Month to date snowfall 0.0 0.0  
Since 1 July snowfall 0.0 T  
Snow Depth 0.00 in    
Sea Level Pressure  
Sea Level Pressure 30.09 in    
Wind  
Wind Speed 8 mph (North)    
Max Wind Speed 21 mph    
Max Gust Speed 29 mph    
Visibility 10 miles    
Events      
T = Trace of Precipitation, MM = Missing Value Source: NWS Daily Summary

Daily Weather History Graph

Daily Weather History Graph

Search for Another Location

Airport or City:

Trip Planner

Search our weather history database for the weather conditions in past years. The results will help you decide how hot, cold, wet, or windy it might be!

Date:

Astronomy

Apr. 23, 2012 Rise Set
Actual Time 6:31 AM CDT 7:40 PM CDT
Civil Twilight 6:06 AM CDT 8:05 PM CDT
Nautical Twilight 5:37 AM CDT 8:35 PM CDT
Astronomical Twilight 5:06 AM CDT 9:06 PM CDT
Moon 7:52 AM CDT (4/23) 10:00 PM CDT (4/23)
Length of Visible Light 13h 58m
Length of Day
13h 08m
Waxing Crescent, 5% of the Moon is Illuminated
Apr 23
Waxing Crescent
Apr 29
First Quarter
May 5
Full
May 12
Last Quarter
May 20
New

Hourly Weather History & Observations

Time (CDT) Temp. Dew Point Humidity Pressure Visibility Wind Dir Wind Speed Gust Speed Precip Events Conditions
12:53 AM 64.9 °F 41.0 °F 42% 30.04 in 10.0 mi NNE 17.3 mph 24.2 mph N/A   Clear
1:53 AM 61.0 °F 43.0 °F 52% 30.06 in 10.0 mi North 10.4 mph - N/A   Clear
2:53 AM 60.1 °F 41.0 °F 49% 30.07 in 10.0 mi North 10.4 mph - N/A   Clear
3:53 AM 57.9 °F 39.9 °F 51% 30.08 in 10.0 mi North 8.1 mph - N/A   Clear
4:53 AM 55.9 °F 41.0 °F 57% 30.09 in 10.0 mi North 6.9 mph - N/A   Clear
5:53 AM 54.0 °F 41.0 °F 62% 30.10 in 10.0 mi North 5.8 mph - N/A   Clear
6:53 AM 54.0 °F 42.1 °F 64% 30.12 in 10.0 mi North 9.2 mph - N/A   Clear
7:53 AM 57.0 °F 43.0 °F 59% 30.14 in 10.0 mi North 8.1 mph - N/A   Clear
8:53 AM 60.1 °F 44.1 °F 55% 30.15 in 10.0 mi North 8.1 mph - N/A   Clear
9:53 AM 63.0 °F 44.1 °F 50% 30.16 in 10.0 mi North 11.5 mph 19.6 mph N/A   Clear
10:53 AM 66.0 °F 42.1 °F 42% 30.15 in 10.0 mi North 10.4 mph 20.7 mph N/A   Clear
11:53 AM 66.9 °F 41.0 °F 39% 30.14 in 10.0 mi North 15.0 mph 25.3 mph N/A   Clear
12:53 PM 69.1 °F 39.9 °F 35% 30.12 in 10.0 mi North 13.8 mph 20.7 mph N/A   Clear
1:53 PM 69.8 °F 41.0 °F 35% 30.11 in 10.0 mi NNE 12.7 mph 28.8 mph N/A   Clear
2:53 PM 70.0 °F 39.9 °F 33% 30.09 in 10.0 mi NNW 8.1 mph 20.7 mph N/A   Clear
3:53 PM 70.0 °F 42.1 °F 36% 30.07 in 10.0 mi WNW 11.5 mph 19.6 mph N/A   Clear
4:53 PM 71.1 °F 42.1 °F 35% 30.06 in 10.0 mi North 11.5 mph - N/A   Clear
5:53 PM 71.1 °F 41.0 °F 34% 30.04 in 10.0 mi North 15.0 mph 21.9 mph N/A   Clear
6:53 PM 69.1 °F 41.0 °F 36% 30.04 in 10.0 mi North 9.2 mph - N/A   Clear
7:53 PM 66.0 °F 41.0 °F 40% 30.04 in 10.0 mi NNW 6.9 mph - N/A   Clear
8:53 PM 63.0 °F 42.1 °F 46% 30.06 in 10.0 mi NNW 5.8 mph - N/A   Clear
9:53 PM 57.0 °F 50.0 °F 77% 30.08 in 10.0 mi Calm Calm - N/A   Clear
10:53 PM 54.0 °F 51.1 °F 90% 30.09 in 10.0 mi NE 3.5 mph - N/A   Clear
11:53 PM 55.0 °F 46.9 °F 74% 30.09 in 10.0 mi Calm Calm - N/A   Clear